Luxor, Egypt

11:47 AM EET on June 27, 2017 (GMT +0200)
Luxor

Weather History for HELX - January, 2014

Change the Weather History Date:

Tuesday, January 14, 2014

  Actual Average Record
Temperature  
Mean Temperature 60 °F -  
Max Temperature 77 °F 72 °F 80 °F (2001)
Min Temperature 44 °F 45 °F 37 °F (2008)
Degree Days  
Heating Degree Days 4    
Growing Degree Days 10 (Base 50)    
Moisture  
Dew Point 46 °F    
Average Humidity 58    
Maximum Humidity 81    
Minimum Humidity 28    
Precipitation  
Precipitation 0.00 in 0.00 in - ()
Sea Level Pressure  
Sea Level Pressure 30.00 in    
Wind  
Wind Speed 0 mph ()    
Max Wind Speed 2 mph    
Max Gust Speed -    
Visibility 5.0 miles    
Events      
Averages and records for this station are not official NWS values.
T = Trace of Precipitation, MM = Missing Value Source: Averaged Metar Reports

Daily Weather History Graph

Daily Weather History Graph

Search for Another Location

Airport or City:

Trip Planner

Search our weather history database for the weather conditions in past years. The results will help you decide how hot, cold, wet, or windy it might be!

Date:

Astronomy

Jan. 14, 2014 Rise Set
Actual Time 6:37 AM EET 5:19 PM EET
Civil Twilight 6:12 AM EET 5:44 PM EET
Nautical Twilight 5:44 AM EET 6:12 PM EET
Astronomical Twilight 5:16 AM EET 6:40 PM EET
Moon 4:04 PM EET (1/14) 4:58 AM EET (1/14)
Length of Visible Light 11h 31m
Length of Day
10h 41m
Waxing Gibbous, 97% of the Moon is Illuminated
Jan 14
Waxing Gibbous
Jan 16
Full
Jan 24
Last Quarter
Jan 30
New
Feb 6
First Quarter

Hourly Weather History & Observations

Time (EET) Temp. Dew Point Humidity Pressure Visibility Wind Dir Wind Speed Gust Speed Precip Events Conditions
12:00 AM 53.6 °F 42.8 °F 67% 30.04 in - Calm Calm - N/A   Clear
1:00 AM 51.8 °F 44.6 °F 76% 30.04 in - Calm Calm - N/A   Clear
2:00 AM 51 °F 41 °F 60% 30.03 in 6 mi SSE 1.2 mph - -  
2:00 AM 50.0 °F 41.0 °F 71% 30.01 in - SSE 1.2 mph - N/A   Clear
3:00 AM 50.0 °F 41.0 °F 71% 30.01 in - Calm Calm - N/A   Clear
4:00 AM 50.0 °F 41.0 °F 71% 29.98 in - Calm Calm - N/A   Clear
5:00 AM 50.0 °F 41.0 °F 71% 30.01 in - Calm Calm - N/A   Clear
6:00 AM 46.4 °F 39.2 °F 76% 30.01 in - Calm Calm - N/A   Clear
7:00 AM 44.6 °F 39.2 °F 81% 30.04 in - Calm Calm - N/A   Clear
8:00 AM 49 °F 40 °F 64% 30.07 in 4 mi Calm Calm - -   Mist
9:00 AM 57.2 °F 46.4 °F 67% 30.06 in 2.5 mi SE 2.3 mph - N/A   Haze
10:00 AM 62.6 °F 48.2 °F 59% 30.06 in 5.0 mi Calm Calm - N/A   Unknown
11:00 AM 66 °F 50 °F 46% 30.05 in 5 mi Calm Calm - -   Haze
11:00 AM 66.2 °F 50.0 °F 56% 30.04 in 5.0 mi Calm Calm - N/A   Unknown
12:00 PM 69.8 °F 50.0 °F 49% 30.01 in 5.0 mi Calm Calm - N/A   Unknown
1:00 PM 73.4 °F 50.0 °F 44% 29.98 in 5.0 mi Calm Calm - N/A   Unknown
2:00 PM 75.2 °F 50.0 °F 41% 29.95 in 5.0 mi Calm Calm - N/A   Unknown
3:00 PM 77.0 °F 50.0 °F 39% 29.95 in - WSW 2.3 mph - N/A   Clear
4:00 PM 77.0 °F 50.0 °F 39% 29.95 in - Calm Calm - N/A   Clear
5:00 PM 76 °F 49 °F 28% 29.94 in 6 mi Calm Calm - -  
5:00 PM 75.2 °F 48.2 °F 38% 29.95 in - Calm Calm - N/A   Clear
6:00 PM 68.0 °F 50.0 °F 52% 29.95 in - NNE 2.3 mph - N/A   Clear
7:00 PM 68.0 °F 51.8 °F 56% 29.98 in - Calm Calm - N/A   Clear
8:00 PM 64 °F 51 °F 54% 29.99 in 6 mi Calm Calm - -  
8:00 PM 64.4 °F 51.8 °F 64% 29.98 in - Calm Calm - N/A   Clear
9:00 PM 60.8 °F 46.4 °F 59% 30.01 in - Calm Calm - N/A   Clear
10:00 PM 59.0 °F 46.4 °F 63% 30.01 in - SSE 2.3 mph - N/A   Clear
11:00 PM 58 °F 44 °F 50% 30.03 in 6 mi SE 2.3 mph - -  
11:00 PM 57.2 °F 44.6 °F 63% 30.01 in - SE 2.3 mph - N/A   Clear